Regional Weather Roundup
Issued by NWS

Home | Current Version | Previous Version | Text Only | Print | Product List | Glossary Off
Versions: 1 2 3 4 5 6 7 8 9 10 11 12 13 14 15 16 17 18 19 20 21 22 23 24 25 26 27 28 29 30 31 32 33 34 35 36 37 38 39 40 41 42 43 44 45 46 47 48 49 50

000
ASUS43 KOAX 021302
RWRNE

WEATHER ROUNDUP FOR NEBRASKA
NATIONAL WEATHER SERVICE OMAHA NE
800 AM CDT MON MAY 02 2016

NOTES: SATELLITE DATA IS BEING USED TO AUGMENT CLOUD COVER ABOVE
       12000 FEET.
       "FAIR" INDICATES FEW OR NO CLOUDS BELOW 12,000 FEET WITH NO
       SIGNIFICANT WEATHER AND/OR OBSTRUCTIONS TO VISIBILITY.

  * THESE STATIONS DO NOT REPORT WEATHER SUCH AS RAIN...SNOW OR FOG.

NEZ001>004-019>022-054>056-021400-
NEBRASKA PANHANDLE

CITY           SKY/WX    TMP DP  RH WIND       PRES   REMARKS
SCOTTSBLUFF    SUNNY     33  28  81 NW8       30.23R WCI  26
ALLIANCE       SUNNY     27  25  92 W6        30.19S WCI  20
CHADRON        SUNNY     33  30  88 W5        30.19F WCI  29
KIMBALL        SUNNY     30  26  83 W7        30.23S WCI  23
SIDNEY         SUNNY     31  24  75 W12       30.22S WCI  22
$$

NEZ057>060-069>072-079>082-021400-
SOUTHWEST NEBRASKA

CITY           SKY/WX    TMP DP  RH WIND       PRES   REMARKS
NORTH PLATTE   SUNNY     33  30  88 W6        30.20S WCI  28
IMPERIAL       SUNNY     35  29  78 W9        30.22S WCI  28
LEXINGTON      SUNNY     35  32  89 NW7       30.20S WCI  29
MCCOOK         SUNNY     37  32  82 W9        30.21S WCI  30
$$

NEZ005>010-023>029-035>040-094-021400-
NORTH CENTRAL NEBRASKA

CITY           SKY/WX    TMP DP  RH WIND       PRES   REMARKS
VALENTINE      SUNNY     35  31  85 SW6       30.17S WCI  30
AINSWORTH      SUNNY     38  34  84 W5        30.17S WCI  35
BROKEN BOW     SUNNY     35  32  88 CALM      30.18S
ORD            SUNNY     36  33  89 NW5       30.17S WCI  32
$$

NEZ041-046>049-061>064-073>077-083>087-021400-
SOUTH CENTRAL NEBRASKA

CITY           SKY/WX    TMP DP  RH WIND       PRES   REMARKS
GRAND ISLAND   SUNNY     40  35  83 W10       30.18S WCI  33
AURORA         PTSUNNY   40  38  92 NW6       30.18S
HASTINGS       SUNNY     42  36  79 NW9       30.18R
KEARNEY *      SUNNY     37  34  87 NW9       30.19S WCI  31
YORK           SUNNY     45  39  81 NW10      30.17S
$$

NEZ011>018-030>034-042>045-021400-
NORTHEAST NEBRASKA

CITY           SKY/WX    TMP DP  RH WIND       PRES   REMARKS
NORFOLK        SUNNY     41  37  86 NW3       30.16S
ALBION         SUNNY     38  35  87 NW7       30.17S WCI  33
BLAIR          CLOUDY    47  40  76 N7        30.13S
COLUMBUS *     SUNNY     43  32  65 W5        30.17S
FREMONT        SUNNY     44  41  87 NW8       30.16R
TEKAMAH        SUNNY     45  41  86 N6        30.15R
$$

NEZ050>053-065>068-078-088>093-021400-
SOUTHEAST NEBRASKA

CITY           SKY/WX    TMP DP  RH WIND       PRES   REMARKS
LINCOLN        MOSUNNY   50  40  68 NW10      30.17R
OMAHA EPPLEY   PTSUNNY   47  42  83 N3        30.15R
BEATRICE       CLOUDY    47  44  90 NW5       30.16R
FALLS CITY     CLOUDY    49  46  90 NW7       30.12R
NEBRASKA CITY  CLOUDY    48  45  88 N8        30.14S
$$

NEZ044-045-051>053-067-021400-
OMAHA AREA

CITY           SKY/WX    TMP DP  RH WIND       PRES   REMARKS
OMAHA EPPLEY   PTSUNNY   47  42  83 N3        30.15R
BLAIR          CLOUDY    47  40  76 N7        30.13S
FREMONT        SUNNY     44  41  87 NW8       30.16R
WAHOO          FAIR      46  40  80 NW8       30.15S
$$




USA.gov is the U.S. government's official web portal to all federal, state and local government web resources and services.